Weather History for Gatesville, TX

Change the Weather History Date:

Thursday, February 7, 2013

  Actual Average (KHLR) Record (KHLR)
Temperature  
Mean Temperature 68 °F -  
Max Temperature 82 °F 59 °F 84 °F (2013)
Min Temperature 55 °F 43 °F 26 °F (2014)
Cooling Degree Days 4    
Growing Degree Days 18 (Base 50)    
Moisture  
Dew Point 51 °F    
Average Humidity 62    
Maximum Humidity 88    
Minimum Humidity 21    
Precipitation  
Precipitation 0.00 in - - ()
Sea Level Pressure  
Sea Level Pressure 29.95 in    
Wind  
Wind Speed 10 mph (WSW)    
Max Wind Speed 18 mph    
Max Gust Speed 26 mph    
Visibility 9 miles    
Events      
Averages and records for this station are not official NWS values.
T = Trace of Precipitation, MM = Missing Value Source: NWS Daily Summary

Daily Weather History Graph

Daily Weather History Graph

Search for Another Location

Airport:

Trip Planner

Search our weather history database for the weather conditions in past years. The results will help you decide how hot, cold, wet, or windy it might be!

Date:

Astronomy

Feb. 07, 2013 Rise Set
Actual Time 7:19 AM CST 6:11 PM CST
Civil Twilight 6:54 AM CST 6:36 PM CST
Nautical Twilight 6:25 AM CST 7:05 PM CST
Astronomical Twilight 5:56 AM CST 7:34 PM CST
Moon 4:54 AM CST (2/7) 3:42 PM CST (2/7)
Length of Visible Light 11h 42m
Length of Day
10h 52m
Waning Crescent, 9% of the Moon is Illuminated
Feb 7
Waning Crescent
Feb 10
New
Feb 17
First Quarter
Feb 25
Full
Mar 4
Last Quarter

Hourly Weather History & Observations

Time (CST) Temp. Dew Point Humidity Pressure Visibility Wind Dir Wind Speed Gust Speed Precip Events Conditions
12:15 AM 60.8 °F 57.2 °F 88% 29.93 in 10.0 mi SSE 6.9 mph - N/A   Overcast
12:35 AM 60.8 °F 57.2 °F 88% 29.93 in 10.0 mi SSE 6.9 mph - N/A   Overcast
12:55 AM 60.8 °F 57.2 °F 88% 29.93 in 10.0 mi SSE 10.4 mph - N/A   Overcast
1:15 AM 60.8 °F 57.2 °F 88% 29.93 in 10.0 mi South 8.1 mph - N/A   Overcast
1:35 AM 60.8 °F 57.2 °F 88% 29.93 in 10.0 mi South 9.2 mph - N/A   Overcast
1:55 AM 60.8 °F 57.2 °F 88% 29.92 in 10.0 mi South 9.2 mph - N/A   Overcast
2:15 AM 60.8 °F 57.2 °F 88% 29.92 in 10.0 mi South 10.4 mph - N/A   Overcast
2:35 AM 60.8 °F 57.2 °F 88% 29.92 in 10.0 mi South 12.7 mph 17.3 mph N/A   Overcast
2:55 AM 60.8 °F 55.4 °F 82% 29.92 in 10.0 mi South 10.4 mph 17.3 mph N/A   Overcast
3:15 AM 60.8 °F 55.4 °F 82% 29.92 in 10.0 mi South 10.4 mph 16.1 mph N/A   Overcast
3:35 AM 60.8 °F 55.4 °F 82% 29.92 in 10.0 mi South 8.1 mph - N/A   Overcast
3:55 AM 60.8 °F 55.4 °F 82% 29.92 in 10.0 mi South 8.1 mph - N/A   Overcast
4:15 AM 60.8 °F 55.4 °F 82% 29.92 in 10.0 mi South 6.9 mph - N/A   Overcast
4:35 AM 60.8 °F 55.4 °F 82% 29.92 in 10.0 mi South 6.9 mph - N/A   Overcast
4:55 AM 60.8 °F 57.2 °F 88% 29.91 in 7.0 mi South 5.8 mph - N/A   Overcast
5:15 AM 60.8 °F 57.2 °F 88% 29.92 in 8.0 mi South 4.6 mph - N/A   Overcast
5:35 AM 60.8 °F 57.2 °F 88% 29.92 in 10.0 mi SSW 9.2 mph - N/A   Overcast
5:55 AM 60.8 °F 57.2 °F 88% 29.92 in 10.0 mi SSW 6.9 mph - N/A   Overcast
6:15 AM 60.8 °F 57.2 °F 88% 29.93 in 10.0 mi SSW 8.1 mph - N/A   Overcast
6:35 AM 60.8 °F 57.2 °F 88% 29.93 in 10.0 mi SW 6.9 mph - N/A   Overcast
6:55 AM 60.8 °F 57.2 °F 88% 29.94 in 10.0 mi SW 5.8 mph - N/A   Overcast
7:15 AM 60.8 °F 57.2 °F 88% 29.94 in 10.0 mi South 4.6 mph - N/A   Overcast
7:35 AM 60.8 °F 57.2 °F 88% 29.94 in 10.0 mi Calm Calm - N/A   Overcast
7:55 AM 60.8 °F 57.2 °F 88% 29.94 in 10.0 mi South 4.6 mph - N/A   Overcast
8:15 AM 60.8 °F 57.2 °F 88% 29.95 in 10.0 mi South 3.5 mph - N/A   Overcast
8:35 AM 62.6 °F 57.2 °F 82% 29.95 in 10.0 mi South 3.5 mph - N/A   Overcast
8:55 AM 62.6 °F 57.2 °F 82% 29.95 in 10.0 mi South 5.8 mph - N/A   Scattered Clouds
9:15 AM 64.4 °F 57.2 °F 77% 29.95 in 10.0 mi SSW 12.7 mph - N/A   Clear
9:35 AM 64.4 °F 57.2 °F 77% 29.95 in 10.0 mi SW 11.5 mph - N/A   Partly Cloudy
9:55 AM 66.2 °F 57.2 °F 73% 29.95 in 10.0 mi WSW 12.7 mph - N/A   Scattered Clouds
10:15 AM 68.0 °F 57.2 °F 68% 29.95 in 10.0 mi SW 18.4 mph 23.0 mph N/A   Scattered Clouds
10:35 AM 69.8 °F 57.2 °F 64% 29.95 in 10.0 mi SW 16.1 mph 19.6 mph N/A   Partly Cloudy
10:55 AM 71.6 °F 55.4 °F 57% 29.95 in 10.0 mi SW 12.7 mph - N/A   Clear
11:15 AM 71.6 °F 55.4 °F 57% 29.94 in 10.0 mi SW 11.5 mph 18.4 mph N/A   Clear
11:35 AM 73.4 °F 55.4 °F 53% 29.94 in 10.0 mi SW 8.1 mph - N/A   Clear
11:55 AM 75.2 °F 55.4 °F 50% 29.93 in 10.0 mi SW 10.4 mph 19.6 mph N/A   Clear
12:15 PM 75.2 °F 53.6 °F 47% 29.92 in 10.0 mi SW 15.0 mph 21.9 mph N/A   Clear
12:35 PM 77.0 °F 53.6 °F 44% 29.91 in 10.0 mi WSW 13.8 mph - N/A   Clear
12:55 PM 78.8 °F 53.6 °F 42% 29.90 in 10.0 mi WSW 15.0 mph 19.6 mph N/A   Clear
1:15 PM 78.8 °F 51.8 °F 39% 29.89 in 10.0 mi WSW 16.1 mph 23.0 mph N/A   Clear
1:35 PM 80.6 °F 50.0 °F 34% 29.88 in 10.0 mi West 12.7 mph 18.4 mph N/A   Clear
1:55 PM 80.6 °F 48.2 °F 32% 29.87 in 10.0 mi West 13.8 mph 23.0 mph N/A   Clear
2:15 PM 82.4 °F 42.8 °F 25% 29.87 in 10.0 mi West 12.7 mph 19.6 mph N/A   Clear
2:35 PM 82.4 °F 42.8 °F 25% 29.87 in 10.0 mi NW 13.8 mph 24.2 mph N/A   Clear
2:55 PM 82.4 °F 41.0 °F 23% 29.88 in 10.0 mi West 16.1 mph 24.2 mph N/A   Clear
3:15 PM 82.4 °F 39.2 °F 21% 29.88 in 10.0 mi WNW 12.7 mph 21.9 mph N/A   Clear
3:35 PM 82.4 °F 39.2 °F 21% 29.87 in 10.0 mi West 13.8 mph 21.9 mph N/A   Clear
3:55 PM 82.4 °F 42.8 °F 25% 29.88 in 10.0 mi West 11.5 mph 19.6 mph N/A   Clear
4:15 PM 80.6 °F 39.2 °F 23% 29.88 in 10.0 mi NW 17.3 mph 23.0 mph N/A   Clear
4:35 PM 78.8 °F 35.6 °F 21% 29.90 in 10.0 mi NNW 13.8 mph 23.0 mph N/A   Clear
4:55 PM 77.0 °F 37.4 °F 24% 29.91 in 10.0 mi NNW 12.7 mph 24.2 mph N/A   Clear
5:15 PM 75.2 °F 37.4 °F 25% 29.92 in 10.0 mi NNW 11.5 mph 20.7 mph N/A   Clear
5:35 PM 73.4 °F 39.2 °F 29% 29.93 in 10.0 mi NNW 13.8 mph 23.0 mph N/A   Clear
5:55 PM 71.6 °F 42.8 °F 35% 29.94 in 10.0 mi NW 15.0 mph 21.9 mph N/A   Clear
6:15 PM 71.6 °F 42.8 °F 35% 29.95 in 10.0 mi NNW 12.7 mph 21.9 mph N/A   Clear
6:35 PM 69.8 °F 44.6 °F 40% 29.97 in 1.8 mi NNW 11.5 mph 19.6 mph N/A   Haze
6:55 PM 68.0 °F 44.6 °F 43% 29.98 in 1.5 mi NNW 15.0 mph 19.6 mph N/A   Haze
7:15 PM 66.2 °F 44.6 °F 46% 30.00 in 3.0 mi NNW 11.5 mph - N/A   Haze
7:35 PM 64.4 °F 46.4 °F 52% 30.01 in 3.0 mi NNW 16.1 mph 23.0 mph N/A   Haze
7:55 PM 64.4 °F 48.2 °F 56% 30.02 in 0.5 mi NNW 9.2 mph 18.4 mph N/A   Haze
8:15 PM 64.4 °F 48.2 °F 56% 30.03 in 10.0 mi NNW 15.0 mph 21.9 mph N/A   Clear
8:35 PM 62.6 °F 46.4 °F 55% 30.04 in 10.0 mi NNW 10.4 mph - N/A   Clear
8:55 PM 62.6 °F 46.4 °F 55% 30.06 in 1.5 mi NNW 9.2 mph 19.6 mph N/A   Haze
9:15 PM 60.8 °F 46.4 °F 59% 30.07 in 10.0 mi NNW 15.0 mph 26.5 mph N/A   Clear
9:35 PM 60.8 °F 44.6 °F 55% 30.08 in 2.0 mi North 18.4 mph 24.2 mph N/A   Haze
9:55 PM 59.0 °F 44.6 °F 59% 30.09 in 10.0 mi North 17.3 mph 23.0 mph N/A   Clear
10:15 PM 57.2 °F 44.6 °F 63% 30.10 in 10.0 mi North 12.7 mph 18.4 mph N/A   Clear
10:35 PM 57.2 °F 44.6 °F 63% 30.11 in 2.0 mi North 12.7 mph 20.7 mph N/A   Haze
10:55 PM 57.2 °F 44.6 °F 63% 30.12 in 2.0 mi North 13.8 mph 18.4 mph N/A   Haze
11:15 PM 55.4 °F 44.6 °F 67% 30.13 in 1.0 mi North 13.8 mph - N/A   Haze
11:35 PM 55.4 °F 44.6 °F 67% 30.14 in 0.8 mi North 12.7 mph - N/A   Haze
11:55 PM 55.4 °F 44.6 °F 67% 30.15 in 1.5 mi North 11.5 mph - N/A   Haze